Tracking 31027 objects as of 19-Jul-2025
HD Live streaming from Space Station
objects crossing your sky now

MOLNIYA 3-41

Track MOLNIYA 3-41 now!
MOLNIYA 3-41 is classified as:


NORAD ID: 21706
Int'l Code: 1991-065A
Perigee: 461.2 km
Apogee: 39,254.0 km
Inclination: 63.5 °
Period: 704.6 minutes
Semi major axis: 26228 km
RCS: 14.2786 m2 (large)
Launch date: September 17, 1991
Source: Commonwealth of Independent States (former USSR) (CIS)
Launch site: PLESETSK MISSILE AND SPACE COMPLEX (PKMTR)
Your satellite tracking list
KL-BETA B
Track 1 satellite(s)




NASA's NSSDC Master Catalog

Two Line Element Set (TLE):
1 21706U 91065A   25194.46847968 -.00001512  00000-0 -10719-3 0  9992
2 21706  63.4871  16.1989 7395117 251.1251  21.5032  2.04380874249858
Source of the keplerian elements: AFSPC